#timestamp,LO_Frequency,Hit,StdDev 
1571166015.1,286047005.8,N
1571166016.0,286047005.8,N
1571166035.8,286047006.8,N
1571166055.7,286047007.8,N
1571166075.5,286047012.3,Y
1571166095.3,286047008.6,P
1571166115.2,286047010.6,P
1571166135.0,286047009.7,P
1571166135.9,286047009.7,Y
1571166155.7,286047001.5,P
1571166175.6,286047002.9,N
1571166195.4,286047002.9,N
1571166215.3,286047005.5,N
1571166235.1,286047003.1,N
1571166236.0,286047003.1,N
1571166255.8,286047003.3,N
1571166275.7,286047001.6,N
1571166295.5,286047001.9,N
1571166315.3,286046999.7,N
1571166335.2,286047002.5,N
1571166355.0,286047002.7,N
1571166355.9,286047002.7,N
1571166375.8,286047000.3,N
1571166395.6,286047000.4,N
1571166415.4,286047000.3,N
1571166435.3,286047004.3,N
1571166455.1,286047003.4,N
1571166475.8,286047003.9,N
1571166495.7,286047004.6,N
1571166515.5,286047006.9,Y
1571166535.4,286047001.6,P
1571166555.2,286047003.3,P
1571166575.0,286047002.2,P
1571166575.9,286047002.2,Y
1571166595.8,286046997.0,P
1571166615.6,286046995.8,N
1571166635.5,286046993.1,N
1571166655.3,286046989.6,Y
1571166675.1,286046988.9,P
1571166695.9,286046988.6,N
1571166715.7,286046988.8,N
1571166735.5,286046991.1,N
1571166755.4,286046990.7,N
1571166775.2,286046993.3,N
1571166795.1,286046995.6,N
1571166796.0,286046995.6,N
1571166815.8,286046996.9,N
1571166835.6,286046998.5,N
1571166855.5,286047001.1,N
1571166875.3,286047000.3,N
1571166895.1,286046999.7,N
1571166915.9,286047002.4,N
1571166935.7,286047001.5,N
1571166955.6,286047001.5,N
1571166975.4,286047008.9,N
1571166995.2,286047004.9,N
1571167015.1,286047005.2,N
1571167016.0,286047005.2,N
1571167035.8,286047001.9,N
1571167055.6,286047002.5,N
1571167075.5,286047002.2,N
1571167095.3,286047002.1,N
1571167115.2,286047001.5,N
1571167135.9,286047002.3,N
1571167155.7,286047000.0,N
1571167175.6,286046999.8,N
1571167195.4,286046999.9,N
1571167215.2,286047000.2,N
1571167235.1,286046998.2,N
1571167236.0,286046998.2,N
1571167255.8,286046999.6,N
1571167275.7,286046997.7,N
1571167295.5,286046997.5,N
1571167315.3,286046997.7,N
1571167335.2,286046998.0,N
1571167355.9,286046995.2,N
1571167375.7,286046997.5,N
1571167395.6,286046998.0,N
1571167415.4,286047001.2,N
1571167435.3,286047002.1,N
1571167455.1,286047001.4,N
1571167456.0,286047001.4,N
1571167475.8,286047002.7,N
1571167495.7,286047001.7,N
1571167515.5,286047002.5,N
1571167535.3,286047002.0,N
1571167555.2,286047001.5,N
1571167575.0,286047002.0,N
1571167575.9,286047002.0,N
1571167595.8,286047000.5,N
1571167615.6,286047000.7,N
1571167635.4,286046997.0,N
1571167655.3,286046997.4,N
1571167675.1,286046998.3,N
1571167695.8,286046998.1,N
1571167715.7,286046999.0,N
1571167735.5,286046997.2,N
1571167755.4,286046995.1,N
1571167775.2,286046995.8,N
1571167795.0,286046995.1,N
1571167795.9,286046995.1,N
1571167815.8,286046999.6,N
1571167835.6,286046996.8,N
1571167855.4,286046995.9,N
1571167875.3,286046993.0,N
1571167895.1,286046989.0,Y
1571167915.9,286046991.1,P
1571167935.7,286046992.7,N
1571167955.5,286046990.2,N
1571167975.4,286046992.7,N
1571167995.2,286046991.5,N
1571168015.1,286046987.5,Y
1571168016.0,286046987.5,P
1571168035.8,286046996.4,N
1571168055.6,286046993.5,N
1571168075.5,286046995.5,N
1571168095.3,286046995.3,N
1571168115.2,286046995.4,N
1571168135.9,286046996.5,N
1571168155.7,286046998.5,N
1571168175.6,286046998.5,N
1571168195.4,286046999.0,N
1571168215.2,286047000.4,N
1571168235.1,286047000.5,N
1571168236.0,286047000.5,N
1571168255.8,286046999.2,N
1571168275.7,286046996.6,N
1571168295.5,286046996.3,N
1571168315.3,286046994.0,N
1571168335.2,286046992.7,N
1571168355.9,286046990.2,Y
1571168375.7,286046994.1,P
1571168395.6,286046992.5,P
1571168415.4,286046990.2,P
1571168435.3,286046989.1,Y
1571168455.1,286046993.9,P
1571168456.0,286046993.9,P
1571168475.8,286046993.4,P
1571168495.7,286046994.0,Y
1571168515.5,286047000.9,P
1571168535.3,286046998.1,N
1571168555.2,286047000.1,N
1571168575.0,286047002.3,N
1571168575.9,286047002.3,N
1571168595.8,286047004.0,N
1571168615.6,286047004.2,N
1571168635.4,286047007.4,N
1571168655.3,286047010.7,N
1571168675.1,286047008.6,N
1571168695.8,286047007.5,N
1571168715.7,286047005.7,N
1571168735.5,286047003.7,N
1571168755.4,286047002.8,N
1571168775.2,286047002.1,N
1571168795.0,286047002.5,N
1571168795.9,286047002.5,N
1571168815.8,286047004.2,N
1571168835.6,286047004.2,N
1571168855.4,286047003.2,N
1571168875.3,286047007.2,N
1571168895.1,286047007.7,N
1571168915.9,286047011.8,Y
1571168935.7,286047010.2,P
1571168955.5,286047010.1,P
1571168975.4,286047011.4,P
1571168995.2,286047015.1,Y
1571169015.1,286047004.5,P
1571169016.0,286047004.5,N
1571169035.8,286047009.2,P
1571169055.6,286047012.3,Y
1571169075.5,286047005.6,P
1571169095.3,286047007.4,P
1571169115.1,286047004.5,P
1571169135.9,286047005.9,Y
1571169155.7,286046995.0,P
1571169175.6,286046991.7,N
1571169195.4,286046989.0,N
1571169215.2,286046986.1,N
1571169235.1,286046982.2,N
1571169236.0,286046982.2,N
1571169255.8,286046982.6,N
1571169275.6,286046984.7,N
1571169295.5,286046984.7,N
1571169315.3,286046985.6,N
1571169335.2,286046987.4,N
1571169355.9,286046987.1,N
1571169375.7,286046989.5,N
1571169395.6,286046991.5,N
1571169415.4,286046989.4,N
1571169435.2,286046987.7,N
1571169455.1,286046985.5,N
1571169456.0,286046985.5,N
1571169475.8,286046987.8,N
1571169495.7,286046986.2,N
1571169515.5,286046986.3,N
1571169535.3,286046985.3,N
1571169555.2,286046985.7,N
1571169575.0,286046987.9,N
1571169575.9,286046987.9,N
1571169595.7,286046990.0,N
